SCP
0 0 0 0 0 0 0 0 0 0 0 0 0 0 0 0 0 0 0 0 0 0 0 0 0 0 0 0 0 0 0 0 0 0 0 0 0 0 0 0 0 0 0
0 0 0 0 0 0 0 0 0 0 0 0 0 0 0 0 0 0 0 0 0 0 0 0 0 0 0 0 0 0 0 0 0 0 0 0 0 0 0 0 0 0 0
0 0 0 0 0 0 0 0 0 0 0 0 0 0 0 0 0 0 0 0 0 0 0 0 0 0 0 0 0 0 0 0 0 0 0 0 0 0 0 0 0 0 0
0 0 0 0 0 0 0 0 0 0 0 0 0 0 0 0 0 0 0 0 0 0 0 0 0 0 0 0 0 0 0 0 0 0 0 0 0 0 0 0 0 0 0
0 0 0 0 0 0 0 0 0 0 0 0 0 0 0 0 0 0 0 0 0 0 0 0 0 0 0 0 0 0 0 0 0 0 0 0 0 0 0 0 0 0 0
0 0 0 0 0 0 0 0 0 0 0 0 0 0 0 0 0 0 0 0 0 0 0 0 0 0 0 0 0 0 0 0 0 0 0 0 0 0 0 0 0 0 0
0 0 0 0 0 0 0 0 0 0 0 0 0 0 0 0 0 0 0 0 0 0 0 0 0 0 0 0 0 0 0 0 0 0 0 0 0 0 0 0 0 0 0
0 0 0 0 0 0 0 0 0 0 0 0 0 0 0 0 0 0 0 0 0 0 0 0 0 0 0 0 0 0 0 0 0 0 0 0 0 0 0 0 0 0 0
0 0 0 0 0 0 0 0 0 0 0 0 0 0 0 0 0 0 0 0 0 0 0 0 0 0 0 0 0 0 0 0 0 0 0 0 0 0 0 0 0 0 0
0 0 0 0 0 0 0 0 0 0 0 0 0 0 0 0 0 0 0 0 0 0 0 0 0 0 0 0 0 0 0 0 0 0 0 0 0 0 0 0 0 0 0
0 0 0 0 0 0 0 0 0 0 0 0 0 0 0 0 0 0 0 0 0 0 0 0 0 0 0 0 0 0 0 0 0 0 0 0 0 0 0 0 0 0 0
0 0 0 0 0 0 0 0 0 0 0 0 0 0 0 0 0 0 0 0 0 0 0 0 0 0 0 0 0 0 0 0 0 0 0 0 0 0 0 0 0 0 0
0 0 0 0 0 0 0 0 0 0 0 0 0 0 0 0 0 0 0 0 0 0 0 0 0 0 0 0 0 0 0 0 0 0 0 0 0 0 0 0 0 0 0
0 0 0 0 0 0 0 0 0 0 0 0 0 0 0 0 0 0 0 0 0 0 0 0 0 0 0 0 0 0 0 0 0 0 0 0 0 0 0 0 0 0 0
0 0 0 0 0 0 0 0 0 0 0 0 0 0 0 0 0 0 0 0 0 0 0 0 0 0 0 0 0 0 0 0 0 0 0 0 0 0 0 0 0 0 0
0 0 0 0 0 0 0 0 0 0 0 0 0 0 0 0 0 0 0 0 0 0 0 0 0 0 0 0 0 0 0 0 0 0 0 0 0 0 0 0 0 0 0
0 0 0 0 0 0 0 0 0 0 0 0 0 0 0 0 0 0 0 0 0 0 0 0 0 0 0 0 0 0 0 0 0 0 0 0 0 0 0 0 0 0 0
0 0 0 0 0 0 0 0 0 0 0 0 0 0 0 0 0 0 0 0 0 0 0 0 0 0 0 0 0 0 0 0 0 0 0 0 0 0 0 0 0 0 0
0 0 0 0 0 0 0 0 0 0 0 0 0 0 0 0 0 0 0 0 0 0 0 0 0 0 0 0 0 0 0 0 0 0 0 0 0 0 0 0 0 0 0
0 0 0 0 0 0 0 0 0 0 0 0 0 0 0 0 0 0 0 0 0 0 0 0 0 0 0 0 0 0 0 0 0 0 0 0 0 0 0 0 0 0 0
0 0 0 0 0 0 0 0 0 0 0 0 0 0 0 0 0 0 0 0 0 0 0 0 0 0 0 0 0 0 0 0 0 0 0 0 0 0 0 0 0 0 0
0 0 0 0 0 0 0 0 0 0 0 0 0 0 0 0 0 0 0 0 0 0 0 0 0 0 0 0 0 0 0 0 0 0 0 0 0 0 0 0 0 0 0
0 0 0 0 0 0 0 0 0 0 0 0 0 0 0 0 0 0 0 0 0 0 0 0 0 0 0 0 0 0 0 0 0 0 0 0 0 0 0 0 0 0 0
0 0 0 0 0 0 0 0 0 0 0 0 0 0 0 0 0 0 0 0 0 0 0 0 0 0 0 0 0 0 0 0 0 0 0 0 0 0 0 0 0 0 0
0 0 0 0 0 0 0 0 0 0 0 0 0 0 0 0 0 0 0 0 0 0 0 0 0 0 0 0 0 0 0 0 0 0 0 0 0 0 0 0 0 0 0
0 0 0 0 0 0 0 0 0 0 0 0 0 0 0 0 0 0 0 0 0 0 0 0 0 0 0 0 0 0 0 0 0 0 0 0 0 0 0 0 0 0 0
Wind_Speed
6 5 5 5 4 4 3 3 3 2 2 2 3 3 3 3 3 3 3 4 4 4 4 3 4 4 3 3 3 3 3 3 4 4 3 3 3 4 4 3 4 4 4
6 6 6 5 4 4 3 3 3 3 3 3 3 3 4 4 4 4 5 4 4 5 5 4 5 4 4 4 3 4 4 4 4 5 4 3 4 5 4 4 4 4 4
6 6 5 5 5 4 4 4 4 4 3 3 3 4 4 4 4 5 5 5 5 5 5 5 5 4 5 4 4 4 4 4 4 4 4 3 3 3 3 4 4 3 4
7 6 6 6 6 5 5 4 4 4 4 4 4 5 5 5 5 5 4 5 5 5 5 5 6 6 6 6 5 5 5 4 4 4 4 4 4 4 2 3 3 3 3
7 7 6 6 5 5 5 5 4 4 5 4 4 5 5 4 5 5 4 5 5 5 5 5 6 8 10 8 6 5 5 4 4 4 4 3 3 3 3 2 3 3 3
8 7 6 6 5 5 5 5 4 4 4 4 5 5 5 5 6 8 7 5 5 6 6 6 6 8 10 11 12 10 9 7 6 5 4 5 6 5 4 3 2 2 3
7 7 6 6 6 6 5 4 5 5 4 5 5 5 6 8 11 11 11 6 6 6 6 6 6 7 8 6 8 10 10 12 12 8 7 8 6 6 5 4 4 4 5
7 7 6 6 6 6 5 5 5 4 5 5 5 6 6 8 11 12 12 7 6 7 7 7 7 8 8 7 7 7 7 7 8 7 8 9 8 7 6 6 6 4 4
7 7 7 7 6 6 6 6 5 4 5 5 5 6 7 8 11 12 10 4 5 7 7 7 7 7 11 11 7 7 7 7 10 12 12 12 13 12 8 4 3 3 4
8 8 7 6 6 7 7 6 5 5 6 5 6 6 7 8 11 12 10 4 5 6 6 6 9 9 10 9 6 6 8 8 6 6 7 8 8 9 11 8 6 5 4
7 6 5 6 6 6 5 5 5 5 5 6 7 7 7 9 11 13 11 6 6 6 5 5 5 9 10 10 7 6 10 9 5 6 6 5 5 5 6 6 7 7 6
5 5 5 5 5 5 5 5 5 5 6 7 6 7 7 7 9 10 12 12 10 6 7 6 6 10 10 10 8 10 13 10 5 5 5 5 5 6 6 6 8 8 8
4 4 4 4 5 4 5 5 5 5 5 6 6 7 7 6 6 11 12 12 12 8 7 9 10 11 11 9 12 14 11 6 5 6 7 7 6 6 5 4 5 6 7
4 4 3 4 4 4 4 4 5 5 6 6 6 7 7 5 5 5 5 5 7 7 6 7 10 11 10 11 10 8 6 6 7 7 6 6 5 4 5 4 4 4 4
2 3 3 3 4 4 5 5 6 7 7 7 7 6 6 7 9 10 7 5 5 4 3 2 3 4 5 5 5 6 5 5 7 7 7 6 5 5 5 4 4 4 4
2 3 3 3 3 4 5 6 9 10 13 14 14 11 8 12 12 11 12 11 9 6 3 4 5 6 7 7 6 6 5 6 7 7 7 7 6 6 5 4 4 5 5
2 3 3 3 4 5 5 5 7 8 10 11 14 14 14 13 13 12 11 9 7 7 5 6 7 7 7 7 6 7 7 6 6 6 7 7 6 6 5 5 5 4 5
3 4 4 4 4 5 5 6 5 6 6 6 8 12 13 13 13 12 8 5 4 6 6 7 8 7 7 7 7 7 6 6 5 5 6 6 6 6 6 5 5 6 5
3 3 4 4 4 5 5 5 5 6 6 6 6 6 9 9 9 8 7 5 6 6 7 7 8 7 7 7 7 6 6 6 6 5 5 6 6 6 6 6 6 7 6
3 7 6 4 5 5 5 5 5 5 6 5 6 6 4 2 3 4 5 6 7 7 7 7 7 7 6 6 6 6 5 6 6 5 5 5 5 5 6 7 6 6 6
3 5 8 6 5 6 6 6 6 5 5 5 6 7 7 5 6 6 5 6 7 7 7 7 6 6 6 5 5 6 6 5 5 5 5 5 5 5 5 5 6 6 5
3 4 4 5 5 5 6 6 6 6 6 6 6 6 8 5 5 5 5 5 6 6 6 5 5 5 5 5 5 5 5 5 5 5 5 4 4 5 5 5 5 5 5
3 5 5 5 5 7 7 5 5 6 6 6 6 6 5 4 5 4 5 5 5 5 5 5 5 5 5 5 5 5 5 5 5 4 4 4 4 4 4 5 6 5 5
4 5 5 6 6 6 6 6 5 6 6 6 6 5 5 5 4 5 5 5 5 5 4 4 5 6 7 4 3 3 3 4 3 4 5 5 4 4 4 4 5 6 5
4 5 5 5 5 6 6 5 5 6 6 6 5 5 5 4 4 4 4 4 5 4 5 4 4 4 5 5 4 3 3 4 3 3 3 3 4 4 4 5 4 4 5
4 5 5 5 5 5 5 5 6 6 6 5 5 5 5 4 5 5 4 4 3 4 4 3 3 3 3 3 4 3 3 3 3 3 3 3 3 3 4 3 5 5 6
Wind_Direction
170 167 161 170 171 166 172 192 199 209 213 222 235 244 256 261 262 251 252 258 257 264 268 262 263 261 259 260 251 240 228 205 241 268 259 271 276 277 282 269 257 245 244
174 168 170 174 171 176 193 205 200 204 216 223 229 239 251 253 250 244 252 256 250 256 262 261 265 268 261 258 253 250 245 227 223 259 272 272 266 264 264 264 257 245 241
168 166 171 179 183 194 206 211 210 214 225 232 231 238 247 251 251 248 243 248 246 247 248 247 254 256 259 257 253 252 251 253 226 236 260 261 267 268 274 273 263 256 251
165 169 180 193 198 203 207 211 217 219 225 235 238 240 244 248 249 248 244 244 247 250 249 246 246 242 245 250 254 249 247 251 245 241 254 262 264 270 260 266 278 259 256
166 177 194 201 201 202 209 218 225 228 230 232 239 248 251 250 244 234 234 240 242 253 258 254 253 253 250 246 249 243 240 239 241 240 250 259 261 264 254 246 256 269 265
175 190 198 196 199 206 215 221 227 234 238 238 241 247 254 253 248 239 233 237 241 245 255 260 264 266 265 262 260 255 236 229 229 230 238 240 249 243 244 243 243 255 275
186 195 197 195 202 213 216 213 222 230 232 241 247 247 251 256 259 259 252 235 234 240 245 252 264 267 267 263 268 272 263 250 233 222 229 237 240 234 230 243 234 226 235
192 199 200 197 206 212 212 220 227 226 230 239 246 248 251 259 259 258 256 241 236 242 242 242 248 262 265 256 258 264 260 258 248 236 229 237 239 234 223 228 232 240 252
197 203 205 201 205 209 216 226 227 224 234 238 244 247 251 262 262 257 252 232 240 250 249 247 245 253 262 262 253 255 264 266 261 248 238 240 244 243 231 223 226 223 248
204 205 204 201 203 211 220 226 226 223 234 242 250 248 247 255 261 258 246 217 238 252 257 255 252 254 258 259 241 240 255 262 265 272 261 256 251 253 243 221 212 213 221
200 198 199 202 207 215 223 229 230 232 240 245 253 259 254 253 263 262 247 212 224 240 250 253 251 254 255 257 246 233 245 254 259 257 261 260 255 246 241 226 214 210 212
182 192 203 211 218 217 221 237 237 232 241 250 256 266 265 259 254 256 249 232 223 223 240 245 247 253 256 258 256 251 254 256 251 251 254 254 249 247 242 233 225 222 221
185 203 216 223 229 228 226 241 250 242 241 250 250 258 266 261 255 252 251 244 234 223 237 244 252 259 263 265 260 258 256 244 234 240 245 247 242 242 244 242 238 230 232
192 216 228 237 251 254 247 242 246 250 250 250 250 253 258 260 254 249 244 243 241 236 244 258 266 267 263 259 263 261 242 228 225 236 240 245 243 241 241 232 230 221 222
233 245 252 250 256 267 265 254 250 246 243 239 244 241 242 253 250 233 220 224 220 224 232 261 264 268 269 266 262 255 244 232 232 236 238 242 241 240 242 229 218 212 214
312 301 290 283 277 274 278 287 275 263 267 256 247 242 242 242 251 246 236 234 230 211 196 243 256 257 258 261 262 262 250 238 234 231 231 233 234 234 238 229 214 210 216
317 295 290 286 284 282 281 278 288 294 286 275 264 256 246 250 253 248 241 231 223 194 212 242 249 254 255 255 254 253 253 247 236 231 231 231 229 228 228 227 219 216 219
328 313 307 291 287 284 282 277 271 274 287 290 279 264 258 255 253 247 232 197 221 206 224 239 247 250 251 251 251 250 251 252 241 235 233 230 223 220 221 220 215 215 216
331 314 306 298 292 286 286 282 277 275 273 277 286 285 267 261 260 249 200 201 230 236 232 238 244 247 249 248 248 247 245 245 241 234 232 228 221 214 218 219 215 216 211
323 319 321 310 305 304 300 290 285 284 282 279 277 271 267 241 240 232 208 218 232 242 243 244 246 247 248 247 246 245 245 243 241 236 233 228 219 211 216 216 212 206 205
310 311 317 316 305 300 297 292 287 284 283 281 276 270 255 239 240 239 230 226 230 236 240 242 245 249 249 247 245 244 244 244 238 234 232 225 217 213 214 211 210 205 198
301 299 301 299 298 297 296 292 290 286 283 284 286 285 272 255 246 243 240 240 236 233 234 237 244 243 242 241 241 242 243 244 241 233 228 223 218 215 211 208 204 196 193
296 299 300 297 295 298 299 294 295 292 288 284 284 283 277 263 256 252 251 248 245 243 239 235 242 247 247 243 238 232 234 239 237 229 223 221 222 219 210 203 198 191 197
290 292 294 297 300 299 296 297 300 299 293 287 287 283 277 271 264 265 266 260 254 250 243 238 241 248 254 250 243 235 237 242 243 237 223 220 222 222 206 198 197 195 195
290 294 298 298 299 298 298 299 302 303 300 296 296 296 292 284 278 276 273 269 265 261 256 248 242 248 258 253 247 243 245 246 247 252 235 225 225 216 202 195 192 190 188
295 302 305 304 301 300 302 305 304 304 303 304 302 297 294 292 290 289 287 278 275 271 267 261 254 254 258 256 253 246 244 249 253 257 250 231 226 216 198 192 189 186 185